BAW280 KSFO-EGLL

Flight info

Callsign BAW280
Flight time N/A
Altitude 29000
Route SNTNA2 DEDHD DCT ILA DCT BKE DCT STIGS DCT 53N110W/N0497F310 DCT YVC DCT 60N095W 65N084W 67N070W/M085F330 DCT CANEL DCT 68N060W 68N050W 67N040W 66N030W/M085F350 63N020W DCT ERAKA/N0486F350 DCT ETSOM DCT KELLY L10 WAL UY53 NUGRA
Aircraft B742/H-SDFHIRWXY/L

Departure

Time 2026-05-03 22:09
Airport San Francisco International Airport (KSFO)

Arrival

Time N/A
Airport London Heathrow Airport (EGLL)
Time Latitude Longitude Altitude Speed Heading
2026-05-03 20:53 37.61157 -122.38935 35 ft 0 kts 299°
2026-05-03 21:48 37.61153 -122.38925 35 ft 2 kts 299°
2026-05-03 21:48 37.61145 -122.38909 35 ft 2 kts 299°
2026-05-03 21:49 37.61141 -122.38899 35 ft 2 kts 298°
2026-05-03 21:49 37.61136 -122.38882 35 ft 2 kts 279°
2026-05-03 21:49 37.61136 -122.38863 35 ft 2 kts 263°
2026-05-03 21:49 37.61139 -122.38844 35 ft 2 kts 246°
2026-05-03 21:50 37.61147 -122.38828 35 ft 2 kts 230°
2026-05-03 21:50 37.61158 -122.38815 35 ft 2 kts 214°
2026-05-03 21:50 37.61165 -122.38810 35 ft 1 kts 206°
2026-05-03 21:50 37.61166 -122.38809 35 ft 0 kts 207°
2026-05-03 21:55 37.61163 -122.38811 35 ft 1 kts 207°
2026-05-03 21:55 37.61139 -122.38827 35 ft 7 kts 208°
2026-05-03 21:55 37.61069 -122.38875 35 ft 14 kts 208°
2026-05-03 21:55 37.60989 -122.38927 34 ft 9 kts 194°
2026-05-03 21:56 37.60937 -122.38888 35 ft 10 kts 123°
2026-05-03 21:56 37.60897 -122.38794 35 ft 13 kts 119°
2026-05-03 21:56 37.60852 -122.38689 35 ft 12 kts 117°
2026-05-03 21:56 37.60815 -122.38601 34 ft 11 kts 118°
2026-05-03 21:57 37.60778 -122.38515 34 ft 8 kts 118°
2026-05-03 21:57 37.60737 -122.38494 34 ft 6 kts 190°
2026-05-03 21:57 37.60680 -122.38485 34 ft 11 kts 140°
2026-05-03 21:57 37.60619 -122.38398 33 ft 12 kts 131°
2026-05-03 21:58 37.60554 -122.38303 33 ft 16 kts 131°
2026-05-03 21:58 37.60500 -122.38187 32 ft 14 kts 102°
2026-05-03 21:58 37.60511 -122.38065 32 ft 13 kts 81°
2026-05-03 21:58 37.60545 -122.37971 32 ft 13 kts 31°
2026-05-03 21:59 37.60631 -122.37916 31 ft 15 kts 28°
2026-05-03 21:59 37.60742 -122.37843 31 ft 21 kts 28°
2026-05-03 21:59 37.60897 -122.37740 31 ft 27 kts 28°
2026-05-03 21:59 37.61065 -122.37627 29 ft 27 kts 28°
2026-05-03 22:00 37.61229 -122.37516 27 ft 26 kts 28°
2026-05-03 22:00 37.61366 -122.37426 25 ft 17 kts 27°
2026-05-03 22:00 37.61442 -122.37376 24 ft 5 kts 28°
2026-05-03 22:00 37.61463 -122.37362 23 ft 2 kts 28°
2026-05-03 22:01 37.61500 -122.37337 23 ft 10 kts 29°
2026-05-03 22:01 37.61549 -122.37259 21 ft 11 kts 69°
2026-05-03 22:01 37.61560 -122.37152 20 ft 12 kts 98°
2026-05-03 22:01 37.61528 -122.37054 18 ft 13 kts 118°
2026-05-03 22:02 37.61475 -122.36938 17 ft 16 kts 126°
2026-05-03 22:02 37.61400 -122.36834 16 ft 15 kts 134°
2026-05-03 22:02 37.61342 -122.36726 15 ft 15 kts 117°
2026-05-03 22:02 37.61285 -122.36589 15 ft 19 kts 118°
2026-05-03 22:03 37.61220 -122.36433 14 ft 19 kts 118°
2026-05-03 22:03 37.61160 -122.36289 14 ft 17 kts 118°
2026-05-03 22:03 37.61113 -122.36180 14 ft 9 kts 118°
2026-05-03 22:03 37.61078 -122.36098 14 ft 12 kts 119°
2026-05-03 22:04 37.61049 -122.36026 13 ft 5 kts 108°
2026-05-03 22:04 37.61047 -122.36008 13 ft 0 kts 94°
2026-05-03 22:05 37.61047 -122.36004 13 ft 1 kts 94°
2026-05-03 22:05 37.61050 -122.35967 13 ft 6 kts 72°
2026-05-03 22:05 37.61085 -122.35914 13 ft 7 kts 26°
2026-05-03 22:05 37.61105 -122.35902 13 ft 1 kts 28°
2026-05-03 22:06 37.61125 -122.35888 13 ft 6 kts 28°
2026-05-03 22:06 37.61170 -122.35860 13 ft 5 kts
2026-05-03 22:06 37.61197 -122.35889 13 ft 0 kts 297°
2026-05-03 22:08 37.61208 -122.35916 13 ft 15 kts 297°
2026-05-03 22:08 37.61344 -122.36244 14 ft 67 kts 298°
2026-05-03 22:08 37.61646 -122.36964 18 ft 115 kts 298°
2026-05-03 22:08 37.62088 -122.38019 31 ft 156 kts 297°
2026-05-03 22:09 37.62662 -122.39346 137 ft 180 kts 296°
2026-05-03 22:09 37.63287 -122.40670 534 ft 177 kts 296°
2026-05-03 22:09 37.63928 -122.42008 864 ft 181 kts 297°
2026-05-03 22:10 37.65228 -122.44814 1441 ft 192 kts 291°
2026-05-03 22:10 37.65820 -122.46395 1596 ft 207 kts 292°
2026-05-03 22:10 37.66483 -122.48075 1626 ft 219 kts 294°
2026-05-03 22:10 37.67220 -122.49837 1702 ft 230 kts 294°
2026-05-03 22:11 37.67987 -122.51673 1747 ft 243 kts 295°
2026-05-03 22:11 37.68800 -122.53622 1806 ft 255 kts 295°
2026-05-03 22:11 37.69670 -122.55645 1865 ft 269 kts 300°
2026-05-03 22:11 37.70995 -122.57447 1918 ft 287 kts 327°
2026-05-03 22:12 37.72881 -122.58219 2210 ft 294 kts 358°
2026-05-03 22:12 37.74894 -122.57729 2636 ft 296 kts 27°
2026-05-03 22:12 37.76548 -122.56195 3159 ft 293 kts 42°
2026-05-03 22:12 37.78066 -122.54514 3787 ft 285 kts 36°
2026-05-03 22:13 37.79793 -122.53455 4334 ft 276 kts 11°
2026-05-03 22:13 37.81733 -122.53142 4617 ft 279 kts
2026-05-03 22:13 37.83688 -122.53123 5000 ft 280 kts 358°
2026-05-03 22:13 37.85628 -122.53162 5331 ft 282 kts
2026-05-03 22:14 37.87557 -122.52705 5587 ft 286 kts 26°
2026-05-03 22:14 37.89125 -122.51134 5897 ft 287 kts 52°
2026-05-03 22:14 37.90277 -122.49094 6264 ft 287 kts 54°
2026-05-03 22:14 37.91643 -122.47212 6571 ft 289 kts 34°
2026-05-03 22:15 37.93399 -122.45988 6924 ft 290 kts 25°
2026-05-03 22:15 37.95187 -122.44762 7264 ft 292 kts 34°
2026-05-03 22:15 37.96871 -122.43277 7633 ft 293 kts 36°
2026-05-03 22:15 37.98531 -122.41794 7985 ft 295 kts 35°
2026-05-03 22:16 38.00227 -122.40313 8340 ft 296 kts 34°
2026-05-03 22:16 38.01947 -122.38827 8689 ft 297 kts 34°
2026-05-03 22:16 38.03670 -122.37344 9031 ft 299 kts 35°
2026-05-03 22:16 38.05387 -122.35867 9361 ft 300 kts 35°
2026-05-03 22:17 38.07129 -122.34367 9685 ft 302 kts 35°
2026-05-03 22:17 38.08915 -122.32828 9831 ft 311 kts 35°
2026-05-03 22:17 38.10719 -122.31274 9944 ft 322 kts 36°
2026-05-03 22:17 38.12621 -122.29633 10066 ft 332 kts 36°
2026-05-03 22:18 38.14562 -122.27957 10171 ft 344 kts 36°
2026-05-03 22:18 38.16601 -122.26194 10248 ft 357 kts 37°
2026-05-03 22:18 38.18688 -122.24390 10322 ft 371 kts 37°
2026-05-03 22:18 38.20867 -122.22502 10396 ft 385 kts 37°
2026-05-03 22:19 38.23106 -122.20562 10469 ft 398 kts 37°
2026-05-03 22:19 38.25399 -122.18582 10859 ft 401 kts 37°
2026-05-03 22:19 38.27713 -122.16579 11348 ft 402 kts 37°
2026-05-03 22:19 38.30041 -122.14558 11750 ft 405 kts 37°
2026-05-03 22:20 38.32359 -122.12541 12136 ft 409 kts 38°
2026-05-03 22:20 38.34779 -122.10573 12512 ft 414 kts 31°
2026-05-03 22:20 38.37461 -122.09244 12863 ft 423 kts 17°
2026-05-03 22:20 38.40423 -122.08756 13238 ft 431 kts
2026-05-03 22:21 38.43418 -122.09061 13646 ft 434 kts 355°
2026-05-03 22:21 38.46439 -122.09432 14035 ft 436 kts 359°
2026-05-03 22:21 38.49491 -122.09520 14431 ft 437 kts
2026-05-03 22:21 38.52500 -122.09367 14837 ft 438 kts
2026-05-03 22:22 38.55541 -122.09076 15261 ft 439 kts
2026-05-03 22:22 38.58588 -122.08730 15672 ft 440 kts
2026-05-03 22:22 38.61647 -122.08369 16075 ft 442 kts
2026-05-03 22:22 38.64726 -122.08006 16480 ft 443 kts
2026-05-03 22:23 38.67800 -122.07648 16886 ft 444 kts
2026-05-03 22:23 38.70862 -122.07295 17285 ft 446 kts
2026-05-03 22:23 38.73950 -122.06938 17684 ft 447 kts
2026-05-03 22:23 38.77072 -122.06580 18090 ft 448 kts
2026-05-03 22:24 38.80190 -122.06221 18485 ft 450 kts
2026-05-03 22:24 38.83318 -122.05861 18879 ft 452 kts
2026-05-03 22:24 38.86455 -122.05501 19272 ft 453 kts
2026-05-03 22:24 38.89590 -122.05140 19650 ft 455 kts
2026-05-03 22:25 38.92757 -122.04775 20024 ft 456 kts
2026-05-03 22:25 38.95888 -122.04414 20389 ft 458 kts
2026-05-03 22:25 38.99069 -122.04046 20751 ft 460 kts
2026-05-03 22:25 39.02284 -122.03674 21099 ft 461 kts
2026-05-03 22:26 39.05445 -122.03059 21395 ft 459 kts 18°
2026-05-03 22:26 39.08472 -122.01781 21718 ft 457 kts 25°
2026-05-03 22:26 39.11382 -122.00151 22043 ft 456 kts 29°
2026-05-03 22:26 39.14217 -121.98375 22336 ft 457 kts 30°
2026-05-03 22:27 39.17069 -121.96510 22621 ft 459 kts 31°
2026-05-03 22:27 39.19916 -121.94620 22901 ft 461 kts 31°
2026-05-03 22:27 39.22767 -121.92720 23178 ft 462 kts 31°
2026-05-03 22:27 39.25602 -121.90831 23426 ft 464 kts 31°
2026-05-03 22:28 39.28488 -121.88908 23657 ft 467 kts 31°
2026-05-03 22:28 39.31388 -121.86979 23887 ft 469 kts 30°
2026-05-03 22:28 39.34304 -121.85038 24116 ft 471 kts 30°
2026-05-03 22:28 39.37183 -121.83122 24346 ft 473 kts 30°
2026-05-03 22:29 39.40116 -121.81168 24590 ft 474 kts 30°
2026-05-03 22:29 39.43068 -121.79199 24827 ft 476 kts 30°
2026-05-03 22:29 39.46013 -121.77235 25054 ft 477 kts 30°
2026-05-03 22:29 39.48965 -121.75262 25285 ft 479 kts 30°
2026-05-03 22:30 39.51934 -121.73277 25514 ft 480 kts 30°
2026-05-03 22:30 39.54903 -121.71291 25738 ft 481 kts 30°
2026-05-03 22:30 39.57851 -121.69315 25956 ft 483 kts 30°
2026-05-03 22:30 39.60834 -121.67315 26167 ft 484 kts 30°
2026-05-03 22:31 39.63835 -121.65300 26372 ft 485 kts 30°
2026-05-03 22:31 39.66839 -121.63281 26574 ft 487 kts 30°
2026-05-03 22:31 39.69862 -121.61249 26776 ft 488 kts 30°
2026-05-03 22:31 39.72871 -121.59223 26967 ft 489 kts 30°
2026-05-03 22:32 39.75938 -121.57155 27139 ft 491 kts 30°
2026-05-03 22:32 39.78961 -121.55115 27285 ft 493 kts 30°
2026-05-03 22:32 39.82034 -121.53040 27411 ft 495 kts 30°
2026-05-03 22:32 39.85087 -121.50975 27510 ft 498 kts 30°
2026-05-03 22:33 39.88191 -121.48875 27650 ft 500 kts 30°
2026-05-03 22:33 39.91246 -121.46770 27799 ft 500 kts 31°
2026-05-03 22:33 39.94329 -121.44589 27942 ft 501 kts 31°
2026-05-03 22:33 39.97405 -121.42420 28115 ft 501 kts 31°
2026-05-03 22:34 40.00439 -121.40308 28340 ft 500 kts 30°
2026-05-03 22:34 40.03534 -121.38174 28550 ft 499 kts 30°
2026-05-03 22:34 40.06592 -121.36077 28737 ft 499 kts 30°
2026-05-03 22:34 40.09677 -121.33968 28921 ft 500 kts 30°
2026-05-03 22:35 40.12803 -121.31831 29081 ft 501 kts 30°
2026-05-03 22:35 40.18976 -121.27606 29142 ft 503 kts 30°
2026-05-03 22:36 40.25132 -121.23388 29104 ft 493 kts 30°
2026-05-03 22:36 40.31189 -121.19224 29100 ft 497 kts 30°
2026-05-03 22:37 40.37357 -121.14975 29084 ft 498 kts 30°
2026-05-03 22:37 40.43432 -121.10783 29117 ft 496 kts 30°
2026-05-03 22:38 40.49555 -121.06549 29161 ft 499 kts 30°
2026-05-03 22:38 40.55696 -121.02293 29155 ft 497 kts 30°
2026-05-03 22:39 40.61799 -120.98055 29142 ft 496 kts 30°
2026-05-03 22:39 40.67905 -120.93806 29149 ft 498 kts 30°
2026-05-03 22:40 40.74020 -120.89542 29152 ft 497 kts 30°
2026-05-03 22:40 40.80129 -120.85273 29113 ft 498 kts 30°
2026-05-03 22:41 40.86232 -120.80998 29084 ft 496 kts 30°
2026-05-03 22:41 40.92289 -120.76749 29100 ft 494 kts 30°
2026-05-03 22:42 40.98332 -120.72500 29115 ft 491 kts 30°
2026-05-03 22:42 41.04359 -120.68253 29112 ft 490 kts 30°
2026-05-03 22:43 41.10366 -120.64010 29092 ft 489 kts 30°